WHITEHORSE, YK current weather conditions

sailwx.info

Wind from 300 at 3 knots

Air temperature 5.0° C
Visibility: greater than 13.0 NM
Dewpoint 2.0° C

Last reported at 2015-Sep-03 07:00 UTC.
Time now 2015-Sep-03 08:53 UTC

Location: N 60°43' W 135°04'.
View on Google Maps.

See reports from other nearby stations

  
Tides and Currents Weather Stations Pressure Air Temp Water Temp Dewpoint Dewpoint Depression Visibility Wind Speed Wind Dir Waves Ship Positions
date/time (UTC)wind fromknots sea level pressurealtimeterstation pressurevisibilityair tempwater tempwave heightnotes
2015-Sep-03 07:00 300 3 13.0 5.0
2015-Sep-03 06:00 13.0 6.0
2015-Sep-03 05:00 280 4 13.0 6.0
2015-Sep-03 04:00 270 6 34.8 6.0
2015-Sep-03 03:00 260 5 34.8 8.0
2015-Sep-03 02:00 360 5 26.1 8.0
2015-Sep-03 01:00 320 7 26.1 8.0
2015-Sep-03 00:00 280 7 26.1 8.0 Light rain showers.
2015-Sep-02 23:00 26.1 8.0 Light rain showers.
2015-Sep-02 22:00 350 9 gusting 15 26.1 7.0 Light rain showers.
2015-Sep-02 21:27 360 8 17.4 7.0 Light rain showers.
2015-Sep-02 21:10 360 7 17.4 7.0
2015-Sep-02 21:00 360 7 17.4 7.0
2015-Sep-02 20:00 340 7 gusting 16 17.4 5.0 Light rain showers.
2015-Sep-02 19:00 330 7 17.4 6.0 Light rain showers.
2015-Sep-02 18:00 340 7 26.1 5.0
2015-Sep-02 17:00 340 7 26.1 5.0
2015-Sep-02 16:51 350 5 17.4 5.0
2015-Sep-02 16:00 330 7 17.4 5.0 Light rain.
2015-Sep-02 15:33 330 8 17.4 4.0
2015-Sep-02 15:00 340 8 gusting 16 13.0 4.0
2015-Sep-02 14:00 320 10 gusting 18 10.4 4.0 Light rain showers.
2015-Sep-02 13:00 330 11 gusting 19 13.0 4.0 Light rain showers.
2015-Sep-02 12:00 300 8 13.0 4.0 Light rain showers.
2015-Sep-02 11:00 330 9 gusting 16 13.0 4.0 Light rain showers.
2015-Sep-02 10:00 310 10 gusting 16 13.0 5.0
2015-Sep-02 09:00 340 7 13.0 5.0
2015-Sep-02 08:00 340 5 13.0 5.0 Light rain showers.
2015-Sep-02 07:00 320 10 gusting 16 17.4 5.0 Light rain showers.
2015-Sep-02 06:00 17.4 5.0
2015-Sep-02 05:00 330 8 gusting 17 17.4 5.0 Light rain showers.
2015-Sep-02 04:00 330 13 gusting 19 17.4 4.0 Light rain showers.
2015-Sep-02 03:00 340 6 17.4 3.0 Light rain showers.
2015-Sep-02 02:00 340 5 17.4 3.0 Light rain showers.
2015-Sep-02 01:00 310 13 gusting 18 13.0 3.0 Light rain showers.
2015-Sep-02 00:00 310 16 gusting 20 13.0 4.0 Light rain showers.
2015-Sep-01 23:00 310 13 17.4 5.0 Light rain showers.
2015-Sep-01 22:00 290 14 gusting 20 17.4 4.0 Light rain showers.
2015-Sep-01 21:00 300 16 17.4 4.0 Light rain showers.
2015-Sep-01 20:00 320 12 gusting 22 17.4 4.0 Light rain showers.
2015-Sep-01 19:00 320 9 gusting 15 17.4 4.0 Light rain showers.
2015-Sep-01 18:23 320 14 gusting 20 17.4 4.0 Light rain snow.
2015-Sep-01 18:00 310 9 17.4 4.0 Light rain.
2015-Sep-01 17:00 310 12 10.4 3.0 Light rain.
2015-Sep-01 16:34 310 10 gusting 15 5.2 3.0 Light rain snow.
2015-Sep-01 16:00 310 13 gusting 18 7.0 3.0 Light rain.
2015-Sep-01 15:29 320 8 17.4 3.0 Light rain.
2015-Sep-01 15:00 320 6 17.4 3.0
2015-Sep-01 14:29 300 14 17.4 3.0
2015-Sep-01 14:00 300 13 gusting 19 13.0 3.0 Light rain.
2015-Sep-01 13:07 320 11 gusting 20 7.0 3.0 Light rain.
2015-Sep-01 13:00 300 17 8.7 3.0 Light rain.
2015-Sep-01 12:00 300 15 gusting 20 8.7 3.0 Light rain.
2015-Sep-01 11:00 290 13 8.7 4.0 Light rain.
2015-Sep-01 10:00 300 13 gusting 22 8.7 4.0 Light rain.
2015-Sep-01 09:00 320 15 gusting 20 8.7 4.0 Light rain.
2015-Sep-01 08:00 300 12 gusting 18 8.7 4.0 Light rain.